[[{"header":{"parameterUnit":"m.s-1","parameterCategory":1,"la1":30.2991,"la2":30.254,"lo1":-89.0895,"lo2":-89.0444,"dy":0.0017,"dx":0.0017,"nx":28,"ny":28,"refTime":"2025-07-15T09:00:00:Z","depth":0,"parameterNumber":2,"parameterNumberName":"U-component_of_WINDS"},"data":[0,0,0,0,0,0,0,0,0,0,0,0,0,0,0,0,0,0,0,0,0,0,0,0,0,0,0,0,0,0,0,0,0,0,0,0,0,0,0,0,0,0,0,0,0,0,0,0,0,0,0,0,0,0,0,0,0,0,0.7196,0.7195,0,0.715,0.715,0.7149,0.7127,0.7127,0.7127,0.7127,0.7078,0.7077,0.7076,0,0,0,0,0,0,0,0,0,0,0,0,0,0.7262,0.7261,0.7196,0.7195,0.7195,0.715,0.715,0.7149,0.7127,0.7127,0.7127,0.7127,0.7079,0.7077,0.7076,0,0,0,0,0,0,0,0,0,0,0,0,0,0.7227,0.7261,0.7196,0.7178,0.7176,0.7151,0.715,0.7149,0.7127,0.7127,0.7127,0.7127,0.7079,0.7077,0.7076,0.7064,0,0,0.707,0.7069,0,0,0,0,0,0,0,0,0.7229,0.7224,0.7181,0.7179,0.7177,0.7144,0.7155,0.712,0.7127,0.7145,0.7127,0.7127,0.71,0.7097,0.7088,0.7061,0.7059,0.7069,0.7068,0.7067,0.7067,0,0,0,0,0,0,0,0.7231,0.7226,0.7178,0.7181,0.7178,0.7172,0.7167,0.7149,0.7123,0.7144,0.7142,0.7137,0.7099,0.709,0.7087,0.7059,0.7069,0.7068,0.7067,0.7066,0.702,0.7019,0,0,0,0,0,0,0.7237,0.7228,0.7179,0.7176,0.7204,0.7171,0.7165,0.7155,0.7123,0.7119,0.7137,0.7136,0.7093,0.7089,0.7085,0.7069,0.7067,0.7066,0.7065,0.702,0.702,0.7019,0,0,0,0,0,0,0.7238,0.7233,0.7181,0.7202,0.7195,0.717,0.7158,0.7154,0.7145,0.7118,0.7114,0.7132,0.7093,0.7088,0.7069,0.7067,0.7065,0.7063,0.702,0.702,0.7019,0.7036,0,0,0,0,0,0,0.724,0.7233,0.7229,0.7202,0.7194,0.7167,0.7158,0.7153,0.7142,0.714,0.7113,0.7108,0.7093,0.7072,0.7067,0.7064,0.7062,0.702,0.702,0.7019,0.7036,0.7037,0.7038,0,0,0,0,0,0.7243,0.7235,0.7229,0.7223,0.7188,0.7167,0.7162,0.7144,0.7142,0.7137,0.712,0.7109,0.7068,0.707,0.7065,0.7061,0.702,0.702,0.702,0.7035,0.7037,0.7037,0,0,0,0,0,0,0.7262,0.7231,0.7224,0.7207,0.719,0.7163,0.7156,0.7146,0.7129,0.7128,0.7106,0.71,0.7084,0.707,0.7074,0.7047,0.7043,0.7041,0.7057,0.7058,0.7058,0.7062,0.706,0,0,0,0,0,0.7264,0.725,0.7224,0.7212,0.7203,0.7181,0.7171,0.7159,0.714,0.7132,0.7114,0.7095,0.7078,0.7067,0.705,0.7034,0.7027,0.7028,0.7029,0.703,0.7029,0.7019,0.7019,0.7019,0.7019,0.7019,0,0,0.7269,0.725,0.7243,0.7215,0.72,0.7185,0.7175,0.716,0.7149,0.713,0.7111,0.7097,0.7075,0.7058,0.7049,0.7046,0.7028,0.703,0.7031,0.7029,0.7019,0.7019,0.7019,0.7019,0.7019,0.7019,0,0,0.727,0.7255,0.7243,0.7228,0.7205,0.7191,0.7188,0.7162,0.7153,0.7134,0.7119,0.7105,0.7076,0.7061,0.7049,0.7044,0.7034,0.7039,0.7044,0.7035,0.7035,0.7034,0.7032,0.7032,0.7038,0.7038,0.7039,0,0.7278,0.7256,0.7238,0.7223,0.7212,0.7195,0.7182,0.7169,0.7141,0.7133,0.7131,0.7094,0.7077,0.7056,0.7055,0.7046,0.7042,0.7042,0.7036,0.7036,0.7035,0.7033,0.7033,0.7039,0.7039,0.7039,0.7039,0,0.7267,0.7252,0.7245,0.722,0.7207,0.7194,0.7173,0.7163,0.7152,0.7138,0.7119,0.7098,0.7077,0.7071,0.706,0.7048,0.7047,0.704,0.7035,0.7037,0.7034,0.7033,0.704,0.704,0.704,0.704,0,0,0.7279,0.7244,0.7241,0.723,0.7204,0.7191,0.7177,0.7156,0.7147,0.7129,0.7116,0.7092,0.7086,0.7073,0.706,0.7052,0.7049,0.7046,0.7046,0.7047,0.7035,0.704,0.7039,0.7042,0.7042,0.7042,0.7036,0,0.7276,0.725,0.7233,0.7214,0.7199,0.7183,0.717,0.7153,0.7139,0.7124,0.7109,0.7092,0.7085,0.7077,0.7068,0.7052,0.7046,0.7052,0.703,0.7029,0.7036,0.7038,0.7043,0.7039,0.7035,0.7035,0.7035,0,0.7269,0.7251,0.7231,0.7206,0.7199,0.7189,0.7168,0.7154,0.7134,0.7124,0.711,0.7097,0.7081,0.7077,0.7055,0.7059,0.7049,0.7039,0.7039,0.7036,0.7032,0.7035,0.7037,0.7036,0.7034,0.7034,0.7034,0,0.7279,0.725,0.7234,0.7225,0.7196,0.7189,0.7176,0.7156,0.7144,0.7126,0.7118,0.7099,0.7088,0.7073,0.7055,0.7054,0.7034,0.7029,0.7025,0.7025,0.7021,0.7022,0.7022,0.7015,0.7015,0.7015,0.7015,0,0.7277,0.7265,0.7238,0.7229,0.7214,0.7195,0.7182,0.7168,0.715,0.7137,0.7121,0.7109,0.7086,0.7071,0.7057,0.704,0.7035,0.7027,0.7023,0.7028,0.7029,0.7021,0.7021,0.7015,0.7015,0.7015,0.7015,0,0.7286,0.7268,0.7249,0.7223,0.7217,0.7207,0.7185,0.7174,0.716,0.7143,0.7138,0.7115,0.7097,0.7077,0.7052,0.7042,0.7026,0.7021,0.7033,0.7031,0.7028,0.7029,0.7023,0.7021,0.7017,0.7017,0.7017,0,0.7286,0.7277,0.725,0.724,0.7228,0.7212,0.7201,0.7181,0.717,0.7146,0.7138,0.7119,0.7102,0.7073,0.7054,0.7034,0.7028,0.7028,0.7025,0.7031,0.7028,0.7029,0.7028,0.7029,0.7029,0.7029,0.7029,0,0.7288,0.728,0.7264,0.7244,0.7231,0.7215,0.7198,0.7191,0.7168,0.7156,0.7137,0.7124,0.7098,0.7079,0.7057,0.7044,0.7032,0.703,0.7028,0.7033,0.704,0.7036,0.7035,0.703,0.703,0.703,0.703,0.703,0.7292,0.7283,0.7263,0.7245,0.7231,0.7215,0.7204,0.7188,0.7172,0.715,0.714,0.7121,0.71,0.707,0.7057,0.7042,0.7038,0.7036,0.7035,0.7034,0.7036,0.7043,0.7038,0.7037,0.7037,0.7037,0.7037,0,0.7293,0.728,0.7264,0.7241,0.7227,0.7218,0.7199,0.7188,0.7172,0.7154,0.7138,0.7116,0.7097,0.7076,0.7056,0.7048,0.7042,0.7043,0.7043,0.704,0.704,0.7043,0.7048,0.7048,0.7048,0.7048,0.7048,0.7048,0.7292,0.7276,0.7265,0.7241,0.7227,0.7209,0.7198,0.7184,0.717,0.7146,0.7131,0.7117,0.7098,0.7077,0.7059,0.7053,0.7046,0.7049,0.7042,0.7041,0.704,0.704,0.7043,0.7047,0.7047,0.7043,0.7043,0.7043]},{"header":{"parameterUnit":"m.s-1","parameterCategory":1,"la1":30.2991,"la2":30.254,"lo1":-89.0895,"lo2":-89.0444,"dy":0.0017,"dx":0.0017,"nx":28,"ny":28,"refTime":"2025-07-15T09:00:00:Z","depth":0,"parameterNumber":3,"parameterNumberName":"V-component_of_WINDS"},"data":[0,0,0,0,0,0,0,0,0,0,0,0,0,0,0,0,0,0,0,0,0,0,0,0,0,0,0,0,0,0,0,0,0,0,0,0,0,0,0,0,0,0,0,0,0,0,0,0,0,0,0,0,0,0,0,0,0,0,-3.1388,-3.139,0,-3.1523,-3.1525,-3.1526,-3.1518,-3.1516,-3.1514,-3.1513,-3.165,-3.1656,-3.1661,0,0,0,0,0,0,0,0,0,0,0,0,0,-3.1123,-3.1128,-3.1388,-3.139,-3.1391,-3.1523,-3.1525,-3.1527,-3.1519,-3.1516,-3.1514,-3.1512,-3.1648,-3.1655,-3.1662,0,0,0,0,0,0,0,0,0,0,0,0,0,-3.1246,-3.113,-3.1388,-3.1403,-3.1406,-3.1523,-3.1525,-3.1527,-3.1519,-3.1516,-3.1513,-3.1511,-3.1646,-3.1654,-3.1662,-3.1772,0,0,-3.1688,-3.1691,0,0,0,0,0,0,0,0,-3.1239,-3.1256,-3.1399,-3.1402,-3.1406,-3.1501,-3.1482,-3.1609,-3.152,-3.1476,-3.1512,-3.1509,-3.1603,-3.1615,-3.1646,-3.1779,-3.1785,-3.1688,-3.1693,-3.1697,-3.1699,0,0,0,0,0,0,0,-3.1231,-3.125,-3.1441,-3.1401,-3.1405,-3.1404,-3.1418,-3.1506,-3.1554,-3.148,-3.148,-3.1496,-3.1604,-3.1638,-3.1649,-3.1787,-3.1688,-3.1695,-3.1701,-3.1704,-3.2017,-3.202,0,0,0,0,0,0,-3.1219,-3.1243,-3.1437,-3.1446,-3.1314,-3.1411,-3.1427,-3.1473,-3.1553,-3.1563,-3.1498,-3.1495,-3.1626,-3.164,-3.1654,-3.1789,-3.1697,-3.1705,-3.1709,-3.2014,-3.2018,-3.2021,0,0,0,0,0,0,-3.1213,-3.1236,-3.1432,-3.1344,-3.1369,-3.1418,-3.1471,-3.1478,-3.1512,-3.1567,-3.1576,-3.1524,-3.1624,-3.1643,-3.1743,-3.1794,-3.1708,-3.1716,-3.201,-3.2015,-3.2019,-3.2059,0,0,0,0,0,0,-3.1206,-3.1234,-3.1276,-3.1345,-3.1374,-3.1519,-3.1474,-3.1482,-3.1526,-3.1523,-3.1594,-3.1603,-3.1623,-3.1731,-3.1751,-3.1803,-3.1722,-3.2005,-3.2012,-3.2018,-3.2053,-3.2064,-3.2074,0,0,0,0,0,-3.1196,-3.1282,-3.1279,-3.1302,-3.1428,-3.1521,-3.1538,-3.1559,-3.153,-3.1573,-3.1609,-3.1601,-3.1785,-3.1741,-3.1764,-3.1819,-3.2002,-3.201,-3.2017,-3.2048,-3.2062,-3.2074,0,0,0,0,0,0,-3.1217,-3.1291,-3.1288,-3.1399,-3.1454,-3.152,-3.1575,-3.1573,-3.1638,-3.1632,-3.1656,-3.1672,-3.1773,-3.1806,-3.1757,-3.193,-3.189,-3.1902,-3.1905,-3.1919,-3.1929,-3.1919,-3.1729,0,0,0,0,0,-3.1234,-3.1304,-3.1365,-3.1457,-3.1485,-3.1525,-3.1567,-3.1579,-3.1637,-3.166,-3.1703,-3.176,-3.183,-3.1876,-3.1944,-3.2058,-3.2073,-3.2107,-3.2117,-3.2126,-3.2136,-3.22,-3.2216,-3.2046,-3.2046,-3.2046,0,0,-3.1271,-3.132,-3.1363,-3.1462,-3.1506,-3.1579,-3.1545,-3.1622,-3.1676,-3.1672,-3.177,-3.1803,-3.1868,-3.1976,-3.2025,-3.2006,-3.2187,-3.2135,-3.2142,-3.2148,-3.2209,-3.2225,-3.224,-3.2051,-3.205,-3.205,0,0,-3.1375,-3.1419,-3.15,-3.1545,-3.1613,-3.1639,-3.1659,-3.1726,-3.1748,-3.1847,-3.1845,-3.191,-3.2031,-3.2077,-3.2117,-3.224,-3.2235,-3.2261,-3.2316,-3.2378,-3.2391,-3.2403,-3.2448,-3.2463,-3.2271,-3.2271,-3.2272,0,-3.1412,-3.1521,-3.1542,-3.1621,-3.1665,-3.1665,-3.1748,-3.179,-3.1877,-3.1907,-3.1885,-3.2038,-3.2081,-3.22,-3.223,-3.2262,-3.2286,-3.2253,-3.2387,-3.24,-3.2411,-3.2454,-3.2471,-3.2274,-3.2274,-3.2274,-3.2273,0,-3.1563,-3.1639,-3.1696,-3.1781,-3.1831,-3.1911,-3.1946,-3.1994,-3.2002,-3.2031,-3.2132,-3.2184,-3.2263,-3.2292,-3.23,-3.2413,-3.2399,-3.2382,-3.2342,-3.243,-3.247,-3.2487,-3.2278,-3.2277,-3.2276,-3.2276,0,0,-3.1683,-3.1779,-3.18,-3.1839,-3.1914,-3.1973,-3.2053,-3.2131,-3.2173,-3.2232,-3.2301,-3.2404,-3.2389,-3.2433,-3.2447,-3.2501,-3.2596,-3.2477,-3.2479,-3.2498,-3.2724,-3.2738,-3.2756,-3.2593,-3.2596,-3.2599,-3.2719,0,-3.1796,-3.1939,-3.1961,-3.2087,-3.2158,-3.2159,-3.223,-3.2283,-3.2313,-3.2377,-3.2409,-3.2482,-3.2456,-3.2483,-3.2537,-3.2573,-3.2642,-3.2564,-3.2658,-3.2661,-3.2642,-3.2777,-3.2791,-3.2903,-3.2735,-3.2738,-3.274,0,-3.1945,-3.201,-3.2143,-3.221,-3.224,-3.2303,-3.2377,-3.2438,-3.2499,-3.2517,-3.2568,-3.2575,-3.2659,-3.2615,-3.2731,-3.2678,-3.2718,-3.2741,-3.2746,-3.2756,-3.2706,-3.2792,-3.2939,-3.2956,-3.2765,-3.2763,-3.2761,0,-3.2021,-3.2141,-3.2237,-3.2269,-3.2349,-3.2394,-3.2429,-3.2487,-3.2533,-3.2597,-3.2627,-3.27,-3.274,-3.2797,-3.2824,-3.2789,-3.2939,-3.2897,-3.2957,-3.2956,-3.2989,-3.2986,-3.3145,-3.3013,-3.3013,-3.3012,-3.3012,0,-3.2144,-3.2226,-3.2272,-3.2331,-3.2423,-3.2447,-3.2538,-3.2572,-3.2624,-3.269,-3.2695,-3.2756,-3.2788,-3.2854,-3.2876,-3.297,-3.2988,-3.3004,-3.3009,-3.3005,-3.3003,-3.3031,-3.3024,-3.3017,-3.3016,-3.3015,-3.3014,0,-3.2244,-3.2278,-3.2383,-3.245,-3.2468,-3.2533,-3.2591,-3.2648,-3.2677,-3.2761,-3.2782,-3.2828,-3.2906,-3.2939,-3.3035,-3.3049,-3.3158,-3.3156,-3.3137,-3.3139,-3.3197,-3.3192,-3.338,-3.3406,-3.3256,-3.3258,-3.3259,0,-3.2321,-3.2384,-3.2458,-3.2503,-3.254,-3.2611,-3.2658,-3.2685,-3.2734,-3.2809,-3.2858,-3.2936,-3.3001,-3.3127,-3.3168,-3.3242,-3.3243,-3.3304,-3.3254,-3.3248,-3.3245,-3.3242,-3.3249,-3.3313,-3.3315,-3.3316,-3.3317,0,-3.2454,-3.2468,-3.2535,-3.2609,-3.2665,-3.2725,-3.2783,-3.2819,-3.2855,-3.2909,-3.299,-3.304,-3.3139,-3.3218,-3.3294,-3.333,-3.3331,-3.3332,-3.335,-3.3347,-3.3333,-3.3342,-3.3163,-3.3328,-3.3327,-3.3326,-3.3326,-3.3325,-3.2545,-3.2602,-3.2663,-3.2739,-3.2785,-3.284,-3.2897,-3.2934,-3.3002,-3.3085,-3.3096,-3.3183,-3.3244,-3.3347,-3.3386,-3.3454,-3.3439,-3.3465,-3.3471,-3.3477,-3.3482,-3.3322,-3.3468,-3.3468,-3.3468,-3.3468,-3.3467,0,-3.2679,-3.2719,-3.2788,-3.287,-3.2929,-3.2924,-3.2988,-3.3038,-3.3115,-3.3171,-3.3235,-3.3328,-3.3405,-3.3453,-3.353,-3.3575,-3.3577,-3.3595,-3.3592,-3.3601,-3.3491,-3.3468,-3.3592,-3.3592,-3.3592,-3.3592,-3.3592,-3.3592,-3.2756,-3.2852,-3.2873,-3.2993,-3.3032,-3.3117,-3.3154,-3.3205,-3.325,-3.3354,-3.3418,-3.3449,-3.3503,-3.3584,-3.3654,-3.3666,-3.3694,-3.3713,-3.3724,-3.3621,-3.3608,-3.3596,-3.3575,-3.3719,-3.3719,-3.3829,-3.383,-3.3831]}]]